Probability
26 26 25 23 23 22 19 17 14 11 9 9 9 8 7 4 4 4 4 4 3 3 2 1 2 2 3 2 2 1 0 0 0 0 0 0 1 2
22 23 23 21 22 23 21 18 16 13 10 8 8 9 8 5 4 5 4 4 3 3 2 1 1 1 2 1 1 0 0 0 0 0 0 0 1 2
20 20 21 20 21 22 21 17 16 14 10 9 11 12 10 7 5 5 4 3 3 3 1 0 0 0 0 0 0 0 0 0 0 0 0 0 0 1
20 20 20 19 19 20 19 16 15 14 12 12 14 15 11 8 6 4 3 3 3 2 1 0 0 0 0 0 0 0 0 0 0 0 0 0 0 0
22 21 19 18 17 17 17 16 15 14 14 13 13 12 10 8 6 4 3 3 3 2 1 0 0 0 0 0 0 0 0 0 0 0 0 0 0 0
23 21 17 16 16 16 15 15 14 13 13 12 10 9 9 8 6 5 4 3 3 1 0 0 0 0 0 0 0 0 0 0 0 0 0 0 0 0
23 21 17 14 13 12 10 10 10 10 10 10 9 8 9 9 8 6 5 4 3 1 0 0 0 0 0 0 0 0 0 0 0 0 0 0 0 0
22 20 17 12 9 7 6 5 5 6 7 9 9 8 9 9 8 6 6 5 4 3 1 0 0 0 0 0 0 0 0 0 0 0 0 0 0 0
18 17 15 11 7 7 6 4 3 3 4 6 7 8 8 8 7 6 6 6 6 4 2 0 0 0 0 0 0 0 0 0 0 0 0 0 0 0
15 14 13 10 8 8 9 8 6 4 2 3 4 5 5 5 5 5 5 6 6 5 3 2 1 1 0 0 0 0 0 0 0 0 0 0 0 0
15 14 11 9 6 6 9 11 10 8 5 3 2 2 2 2 2 3 3 4 5 6 5 4 2 1 0 0 0 0 0 0 0 0 0 0 0 0
14 13 10 6 3 3 7 11 12 11 9 6 3 2 2 1 0 1 1 2 4 6 5 4 3 1 0 0 0 0 0 0 0 0 0 0 0 0
12 12 8 3 1 1 4 9 11 10 9 8 7 7 6 4 3 3 2 2 3 3 4 3 2 1 0 0 0 0 0 0 0 0 0 0 0 0
10 10 7 2 0 0 2 4 6 7 9 9 9 9 9 8 7 7 7 5 3 3 3 3 2 1 0 0 0 0 0 0 0 0 0 0 0 0
8 8 5 1 0 0 0 1 3 6 9 9 9 9 9 9 9 10 10 8 5 4 4 2 1 0 0 0 0 0 0 0 0 0 1 1 1 1
5 5 3 1 0 1 1 1 3 6 8 6 6 8 9 9 9 9 9 8 6 4 3 1 0 0 0 0 0 0 0 0 0 1 1 2 3 2
3 4 3 2 2 3 3 3 4 5 5 4 5 7 9 9 8 7 8 7 5 3 2 0 0 0 0 0 0 0 0 0 1 2 3 3 3 3
3 4 4 4 4 4 6 6 6 5 5 5 5 7 10 9 6 5 5 4 3 2 1 0 0 1 0 0 0 0 0 1 2 3 3 3 3 3
4 5 5 6 6 6 7 7 7 8 7 6 6 7 8 7 4 2 2 1 1 1 0 0 0 0 0 0 0 0 0 1 2 3 3 3 2 1
5 6 5 5 6 7 7 6 6 7 7 6 5 5 5 5 3 1 0 0 0 0 0 0 0 0 1 1 0 0 0 1 2 2 2 2 1 0
5 6 5 4 4 6 6 4 4 6 6 6 5 4 4 4 2 1 0 0 0 0 0 0 0 1 2 2 1 0 0 0 1 1 1 1 0 0
6 6 5 4 3 4 4 4 4 5 5 6 6 6 5 4 2 1 1 0 0 0 0 0 0 1 2 2 1 0 0 0 0 0 0 0 0 0
6 6 6 5 3 2 3 4 4 4 5 6 6 6 6 4 3 2 2 1 0 0 0 0 0 0 1 2 1 0 0 0 0 0 0 0 0 0
Wind_Speed
2 2 2 2 2 2 1 1 1 2 2 1 1 1 1 2 4 3 3 6 8 8 9 8 8 8 7 7 6 6 6 6 7 7 8 9 9 9
2 2 2 2 2 2 1 1 1 1 2 1 1 1 1 1 3 2 3 7 8 8 9 9 9 9 9 8 7 7 7 7 7 7 8 9 9 9
3 3 3 3 2 2 1 1 1 1 2 2 0 0 1 1 1 1 1 3 4 9 9 9 10 10 10 9 9 8 8 8 7 8 8 9 9 9
3 2 3 3 3 2 2 2 2 1 1 2 1 1 1 1 1 2 2 2 2 7 10 10 10 10 10 10 9 9 8 8 8 8 8 8 9 9
2 2 2 2 3 2 2 2 2 2 1 1 2 1 1 1 1 2 2 2 3 4 8 8 9 9 10 10 10 10 9 8 8 8 8 8 8 9
2 2 2 2 2 2 3 3 3 2 2 2 2 1 1 1 1 2 2 2 3 2 3 5 8 10 11 11 11 10 10 9 9 9 8 8 8 9
2 2 2 2 2 2 2 1 2 2 2 2 2 1 1 1 1 2 2 2 2 2 2 2 3 4 6 9 11 11 11 10 10 9 9 9 9 9
2 2 3 3 3 4 4 3 2 2 2 2 2 2 2 1 1 2 2 2 2 1 1 2 2 3 4 4 8 11 12 11 11 10 10 10 10 10
3 2 3 2 3 3 4 5 4 5 5 4 3 4 3 2 1 2 2 3 3 3 2 3 3 3 3 4 9 10 11 11 11 11 11 11 11 11
3 3 3 2 2 2 3 3 3 4 5 4 4 4 3 2 2 3 4 4 3 3 3 3 3 3 3 2 7 10 11 11 11 11 11 11 11 11
4 4 4 3 3 3 3 3 3 3 4 5 5 5 4 5 3 2 2 2 3 3 2 2 2 3 3 3 4 10 11 11 11 11 11 11 11 9
3 3 3 4 4 4 3 3 4 3 3 3 4 5 6 6 6 5 4 3 3 3 2 1 2 2 3 3 2 3 5 8 10 10 11 11 10 6
3 3 2 5 6 5 5 4 5 4 3 4 4 4 4 3 4 5 4 4 4 4 2 1 2 2 3 3 2 2 3 3 4 6 9 11 10 8
3 2 2 5 7 7 6 7 6 4 3 4 4 3 3 3 3 4 5 5 5 6 4 3 2 3 3 4 3 2 2 2 3 3 3 6 8 10
2 2 3 5 6 7 9 9 6 4 4 4 4 4 3 3 3 3 4 4 5 6 6 5 4 3 3 4 4 3 3 3 2 2 3 3 4 4
3 2 4 6 6 6 5 5 5 5 4 4 4 3 3 3 3 3 3 3 4 4 5 5 5 5 5 5 4 4 3 3 2 2 2 2 3 4
3 3 3 3 4 4 4 4 4 4 4 4 4 3 3 3 3 3 3 3 4 4 4 3 4 5 5 4 4 4 4 3 3 3 3 3 3 3
3 4 4 4 4 4 3 3 3 4 3 3 3 3 3 3 3 3 3 3 4 4 4 3 3 3 3 4 5 5 5 4 3 3 3 3 3 2
4 5 4 4 4 3 3 2 3 3 3 3 3 3 3 3 3 3 3 4 4 3 3 3 3 3 4 5 4 5 4 4 3 3 2 3 3 3
4 4 4 3 3 2 2 2 2 2 2 2 3 3 2 3 3 3 3 4 3 3 4 3 3 4 4 4 3 3 5 4 3 3 3 2 2 1
3 2 2 2 2 2 2 2 2 2 2 2 2 3 2 3 3 3 4 4 4 4 4 4 3 3 2 2 2 3 3 4 3 3 2 2 2 2
2 2 2 2 2 2 2 2 2 2 2 2 2 2 2 3 4 4 3 3 3 4 4 3 2 2 2 3 4 4 3 2 2 2 2 3 3 3
1 1 1 1 1 2 2 2 2 2 2 2 2 2 2 3 3 3 3 3 3 4 3 3 2 2 3 3 3 3 4 3 2 2 2 4 5 5
Wind_Direction
250 252 267 284 290 280 269 230 248 270 262 242 206 180 181 162 174 194 175 192 200 207 212 213 213 213 216 216 216 214 214 218 221 224 225 228 232 234
242 241 249 272 279 291 299 274 242 242 258 252 225 200 196 199 191 215 184 184 198 206 209 208 206 210 214 215 216 217 216 218 223 227 228 230 234 238
244 242 246 255 274 278 281 287 288 273 264 286 271 198 171 185 182 235 215 192 200 206 208 209 210 213 215 216 216 219 220 222 227 230 230 231 234 238
232 245 249 251 255 269 280 286 282 276 254 270 279 283 253 212 216 235 258 254 221 200 205 210 214 217 217 217 218 219 219 222 226 231 236 236 236 238
220 234 257 261 255 251 253 268 275 279 261 252 264 250 246 254 234 257 268 278 274 212 202 210 216 219 220 220 220 219 219 222 226 231 236 239 240 240
223 225 237 236 245 254 252 253 264 278 270 260 261 259 245 247 239 251 269 249 265 269 222 210 212 217 222 223 223 221 220 221 225 229 234 238 241 244
234 218 213 215 215 232 257 268 276 281 282 272 271 276 251 234 251 259 268 267 259 252 243 227 206 211 216 224 226 223 219 220 224 227 230 235 240 244
236 231 213 208 200 209 225 234 234 248 266 270 269 267 264 267 271 278 275 289 285 265 264 275 247 225 220 211 208 209 214 218 223 227 231 234 238 241
224 237 245 222 203 213 223 225 231 237 235 243 262 274 275 273 281 287 280 278 274 278 280 269 263 258 241 225 200 203 210 217 223 226 230 233 238 241
225 224 226 234 234 226 238 230 228 232 231 230 239 257 268 275 262 261 270 276 267 268 253 257 256 255 267 228 207 203 209 215 223 228 230 233 238 242
227 222 211 210 220 217 234 245 248 260 259 249 241 248 251 254 249 257 265 273 282 277 258 244 263 273 266 246 219 210 213 218 223 227 230 232 236 240
234 214 217 208 199 208 229 249 254 260 277 277 264 256 244 240 232 229 241 247 266 276 271 267 272 284 284 263 235 209 221 228 227 229 230 232 230 228
243 222 202 196 203 213 227 242 247 257 261 258 256 249 236 229 219 218 226 231 246 258 273 281 283 283 272 282 276 234 217 222 223 228 230 231 222 210
248 232 211 212 215 224 230 239 245 250 253 253 254 249 245 235 230 223 226 229 231 242 259 264 254 264 274 281 279 268 256 234 221 225 219 217 219 216
252 254 247 241 234 235 233 233 233 237 244 250 252 249 245 243 237 231 233 236 239 243 246 240 236 249 252 261 272 273 273 265 240 229 225 213 198 196
247 256 249 244 247 244 234 221 221 227 234 247 251 255 254 249 246 240 236 233 239 246 237 229 230 235 247 253 259 271 268 262 264 254 240 229 215 201
225 245 249 244 240 234 226 220 217 221 230 242 248 251 254 257 254 243 244 245 245 248 248 238 229 230 236 240 256 263 263 262 255 251 246 241 230 216
220 240 243 245 244 240 235 227 220 223 231 240 245 245 247 253 262 257 250 251 250 250 250 245 238 245 250 250 233 257 264 259 256 247 240 240 241 230
224 244 247 248 252 253 245 238 240 228 220 231 238 243 249 255 261 265 263 261 260 259 256 249 245 244 254 262 252 230 250 261 258 258 246 236 240 233
236 245 250 253 255 265 276 268 258 250 233 241 247 251 251 259 265 268 265 270 277 280 273 258 248 241 245 260 267 264 244 247 243 248 256 259 261 235
252 257 262 270 269 262 267 272 268 265 254 253 252 256 255 255 260 262 262 266 267 269 273 270 261 250 244 242 264 268 265 246 243 235 246 256 261 248
256 268 287 297 304 302 285 270 262 260 265 256 253 255 257 258 264 267 270 271 269 271 277 282 277 267 255 251 260 267 268 258 274 280 265 243 234 239
295 303 298 292 294 301 306 311 313 296 286 286 279 272 270 273 277 273 274 275 276 280 284 284 283 277 266 259 261 263 270 256 239 248 282 265 239 239